TimeCST,TemperatureF,Dew PointF,Humidity,Sea Level PressureIn,VisibilityMPH,Wind Direction,Wind SpeedMPH,Gust SpeedMPH,PrecipitationIn,Events,Conditions,WindDirDegrees,DateUTC
12:54 AM,27.0,23.0,85,30.30,6.0,Calm,Calm,-,N/A,,Clear,0,2012-12-12 06:54:00
1:54 AM,26.1,21.9,84,30.31,4.0,Calm,Calm,-,N/A,,Clear,0,2012-12-12 07:54:00
2:54 AM,26.1,21.0,81,30.32,8.0,Calm,Calm,-,N/A,,Clear,0,2012-12-12 08:54:00
3:54 AM,25.0,21.9,88,30.33,7.0,Calm,Calm,-,N/A,,Clear,0,2012-12-12 09:54:00
4:54 AM,25.0,21.0,85,30.34,8.0,ENE,3.5,-,N/A,,Clear,60,2012-12-12 10:54:00
5:54 AM,23.0,19.0,85,30.35,8.0,NE,3.5,-,N/A,,Clear,40,2012-12-12 11:54:00
6:54 AM,24.8,21.2,86,30.35,6.0,Calm,Calm,-,N/A,,Clear,0,2012-12-12 12:54:00
7:54 AM,28.0,24.1,85,30.38,6.0,ENE,3.5,-,N/A,,Clear,60,2012-12-12 13:54:00
8:54 AM,32.0,27.0,82,30.40,8.0,Calm,Calm,-,N/A,,Clear,0,2012-12-12 14:54:00
9:54 AM,37.0,28.0,70,30.42,10.0,SE,4.6,-,N/A,,Clear,130,2012-12-12 15:54:00
10:54 AM,39.2,26.6,61,30.39,10.0,SE,5.8,-,N/A,,Clear,140,2012-12-12 16:54:00
11:54 AM,42.1,26.1,53,30.39,10.0,SSE,5.8,-,N/A,,Clear,150,2012-12-12 17:54:00
12:54 PM,44.1,21.9,42,30.37,10.0,South,5.8,-,N/A,,Clear,170,2012-12-12 18:54:00
1:54 PM,45.0,24.1,44,30.35,10.0,Calm,Calm,-,N/A,,Clear,0,2012-12-12 19:54:00
2:54 PM,45.0,23.0,42,30.35,10.0,East,4.6,-,N/A,,Clear,100,2012-12-12 20:54:00
3:54 PM,44.1,24.1,45,30.37,10.0,Calm,Calm,-,N/A,,Clear,0,2012-12-12 21:54:00
4:54 PM,39.9,28.0,63,30.36,10.0,Calm,Calm,-,N/A,,Clear,0,2012-12-12 22:54:00
5:54 PM,37.0,27.0,67,30.37,10.0,Calm,Calm,-,N/A,,Clear,0,2012-12-12 23:54:00
6:54 PM,33.1,25.0,72,30.39,10.0,Calm,Calm,-,N/A,,Clear,0,2012-12-13 00:54:00
7:54 PM,32.0,25.0,75,30.40,10.0,Calm,Calm,-,N/A,,Clear,0,2012-12-13 01:54:00
8:54 PM,28.9,23.0,78,30.39,10.0,Calm,Calm,-,N/A,,Clear,0,2012-12-13 02:54:00
9:54 PM,30.0,25.0,82,30.39,10.0,Calm,Calm,-,N/A,,Clear,0,2012-12-13 03:54:00
10:54 PM,28.0,24.1,85,30.38,8.0,Calm,Calm,-,N/A,,Clear,0,2012-12-13 04:54:00
11:54 PM,28.0,23.0,81,30.38,10.0,Calm,Calm,-,N/A,,Clear,0,2012-12-13 05:54:00